[[{"header":{"parameterUnit":"m.s-1","parameterCategory":2,"la1":30.2991,"la2":30.254,"lo1":-89.0895,"lo2":-89.0444,"dy":0.0017,"dx":0.0017,"nx":28,"ny":28,"refTime":"2023-07-23T21:00:00:Z","depth":"0","parameterNumber":2,"parameterNumberName":"U-component_of_CURRENTS"},"data":[0,0,0,0,0,0,0,0,0,0,0,0,0,0,0,0,0,0,0,0,0,0,0,0,0,0,0,0,0,0,0,0,0,0,0,0,0,0,0,0,0,0,0,0,0,0,0,0,0,0,0,0,0,0,0,0,0,0,0.1675,0.1675,0,0.175,0.1751,0.1752,0.1712,0.1709,0.1707,0.1705,0.179,0.1794,0.1798,0,0,0,0,0,0,0,0,0,0,0,0,0,0.1608,0.1609,0.1675,0.1675,0.1676,0.175,0.1751,0.1752,0.1712,0.1709,0.1706,0.1704,0.1788,0.1793,0.1799,0,0,0,0,0,0,0,0,0,0,0,0,0,0.1659,0.161,0.1675,0.1662,0.1662,0.1749,0.1751,0.1753,0.1713,0.1709,0.1706,0.1702,0.1786,0.1793,0.18,0.1912,0,0,0.182,0.1823,0,0,0,0,0,0,0,0,0.1656,0.1662,0.1663,0.1663,0.1663,0.1715,0.1758,0.1805,0.1714,0.1697,0.1705,0.1701,0.1766,0.1774,0.1801,0.1916,0.1919,0.1821,0.1825,0.1828,0.1829,0,0,0,0,0,0,0,0.1652,0.1659,0.1708,0.1664,0.1664,0.1691,0.1693,0.1768,0.1754,0.1698,0.1695,0.1698,0.1766,0.1795,0.1803,0.1921,0.182,0.1826,0.1831,0.1833,0.1963,0.1962,0,0,0,0,0,0,0.1634,0.1655,0.1706,0.171,0.1646,0.1694,0.1697,0.1704,0.1752,0.1755,0.1701,0.1696,0.1785,0.1795,0.1805,0.1815,0.1828,0.1834,0.1838,0.1963,0.1963,0.1962,0,0,0,0,0,0,0.1633,0.1638,0.1703,0.1681,0.169,0.1698,0.1707,0.1708,0.1722,0.1754,0.1757,0.1711,0.1783,0.1796,0.1842,0.1823,0.1837,0.1843,0.1964,0.1963,0.1962,0.1916,0,0,0,0,0,0,0.1631,0.1638,0.1654,0.168,0.1691,0.1736,0.171,0.1712,0.1729,0.1722,0.1765,0.1769,0.1781,0.1832,0.1849,0.1832,0.1848,0.1965,0.1964,0.1963,0.1918,0.1914,0.191,0,0,0,0,0,0.1628,0.1655,0.1655,0.1662,0.1708,0.1736,0.1745,0.1741,0.1732,0.1742,0.1759,0.1767,0.1835,0.1839,0.1859,0.1843,0.1965,0.1964,0.1963,0.192,0.1915,0.191,0,0,0,0,0,0,0.1637,0.1655,0.1654,0.1686,0.1701,0.1727,0.1744,0.1751,0.178,0.177,0.1795,0.1803,0.1824,0.1854,0.1857,0.1872,0.189,0.1893,0.1851,0.1846,0.1842,0.1833,0.1854,0,0,0,0,0,0.165,0.1672,0.1686,0.1713,0.1716,0.1736,0.1755,0.1751,0.1773,0.1781,0.1801,0.1821,0.1844,0.1859,0.1887,0.1934,0.1971,0.1924,0.1919,0.1916,0.1919,0.1929,0.1926,0.1958,0.1958,0.1958,0,0,0.1664,0.1676,0.169,0.1717,0.1728,0.1735,0.1738,0.1756,0.1759,0.1793,0.1804,0.1821,0.1853,0.1869,0.188,0.1888,0.1937,0.1914,0.1911,0.1917,0.1928,0.1925,0.1922,0.1957,0.1957,0.1957,0,0,0.1684,0.1706,0.1718,0.1728,0.1739,0.1749,0.1751,0.1767,0.1765,0.1797,0.1795,0.18,0.1858,0.1851,0.1864,0.1867,0.1914,0.1869,0.1848,0.1856,0.1854,0.1852,0.1942,0.1948,0.1865,0.1865,0.1865,0,0.1685,0.1711,0.1728,0.173,0.1735,0.1747,0.1749,0.1764,0.1791,0.1798,0.1783,0.1826,0.184,0.1857,0.183,0.1856,0.19,0.1864,0.1851,0.185,0.1848,0.194,0.1948,0.1863,0.1863,0.1863,0.1863,0,0.1702,0.1722,0.1727,0.1727,0.174,0.1748,0.1752,0.1765,0.1764,0.1773,0.1784,0.1798,0.182,0.1807,0.1822,0.1817,0.1868,0.1845,0.1863,0.1842,0.1942,0.195,0.1859,0.186,0.1861,0.1861,0,0,0.1681,0.1727,0.1722,0.1732,0.1736,0.1748,0.1752,0.1764,0.178,0.1773,0.1789,0.1781,0.1787,0.18,0.1808,0.1798,0.1829,0.1814,0.1816,0.1905,0.1916,0.195,0.1964,0.18,0.1801,0.1801,0.2006,0,0.1673,0.1695,0.1709,0.1722,0.1734,0.1742,0.175,0.1764,0.1779,0.1801,0.1792,0.1813,0.1787,0.1801,0.1783,0.1827,0.1843,0.178,0.1922,0.1929,0.1959,0.197,0.1961,0.214,0.2015,0.2017,0.2018,0,0.1663,0.1689,0.1702,0.1738,0.1738,0.174,0.1765,0.1776,0.1805,0.182,0.1829,0.1844,0.1856,0.1817,0.1877,0.1844,0.1876,0.1894,0.1902,0.1951,0.1975,0.2132,0.2162,0.204,0.2032,0.2031,0.203,0,0.1646,0.1675,0.1692,0.1699,0.1736,0.1739,0.1751,0.178,0.1793,0.1843,0.1864,0.189,0.1909,0.1931,0.1975,0.1935,0.205,0.2007,0.2078,0.2086,0.2115,0.2123,0.204,0.2033,0.2032,0.2032,0.2031,0,0.1627,0.1641,0.1691,0.1701,0.1715,0.1741,0.1754,0.178,0.1816,0.1836,0.1874,0.1898,0.1924,0.199,0.202,0.2107,0.2101,0.2096,0.2125,0.2105,0.2109,0.2034,0.1909,0.2039,0.2038,0.2036,0.2035,0,0.1596,0.163,0.1656,0.17,0.1708,0.1715,0.1737,0.1759,0.1807,0.1841,0.1858,0.1921,0.2025,0.2095,0.2169,0.2178,0.2177,0.2277,0.2296,0.232,0.2242,0.2115,0.199,0.1973,0.2402,0.2404,0.2405,0,0.1584,0.1599,0.1641,0.1649,0.1662,0.1681,0.1693,0.1739,0.1764,0.1847,0.1862,0.1977,0.2042,0.222,0.2299,0.2434,0.2257,0.2464,0.2345,0.2248,0.2129,0.1958,0.194,0.2407,0.2408,0.241,0.2411,0,0.1556,0.1567,0.1584,0.1609,0.1621,0.1636,0.1663,0.1679,0.1742,0.1788,0.1856,0.1921,0.2119,0.2242,0.2425,0.248,0.2305,0.2489,0.2359,0.2096,0.1933,0.1931,0.2316,0.2421,0.242,0.2419,0.2418,0.2418,0.1519,0.152,0.1541,0.156,0.1572,0.1586,0.1592,0.1634,0.1668,0.1735,0.1813,0.1912,0.2133,0.2389,0.2416,0.2467,0.2369,0.2406,0.227,0.2116,0.2028,0.247,0.2601,0.2601,0.2601,0.2601,0.2601,0,0.1466,0.1479,0.1495,0.1509,0.1505,0.1533,0.1565,0.1577,0.1609,0.1706,0.1771,0.1951,0.2117,0.226,0.2418,0.2293,0.2165,0.2167,0.1903,0.191,0.231,0.2238,0.233,0.233,0.233,0.2331,0.2331,0.2331,0.1439,0.1435,0.1456,0.1443,0.1451,0.1445,0.146,0.1494,0.1564,0.1642,0.1718,0.1793,0.1965,0.2096,0.2069,0.2003,0.1749,0.1622,0.1566,0.1802,0.1812,0.1822,0.1728,0.1711,0.171,0.1202,0.1197,0.1193]},{"header":{"parameterUnit":"m.s-1","parameterCategory":2,"la1":30.2991,"la2":30.254,"lo1":-89.0895,"lo2":-89.0444,"dy":0.0017,"dx":0.0017,"nx":28,"ny":28,"refTime":"2023-07-23T21:00:00:Z","depth":"0","parameterNumber":3,"parameterNumberName":"V-component_of_CURRENTS"},"data":[0,0,0,0,0,0,0,0,0,0,0,0,0,0,0,0,0,0,0,0,0,0,0,0,0,0,0,0,0,0,0,0,0,0,0,0,0,0,0,0,0,0,0,0,0,0,0,0,0,0,0,0,0,0,0,0,0,0,0.1382,0.1383,0,0.141,0.141,0.141,0.1405,0.1404,0.1404,0.1404,0.1404,0.1404,0.1405,0,0,0,0,0,0,0,0,0,0,0,0,0,0.1325,0.1326,0.1382,0.1383,0.1383,0.141,0.141,0.141,0.1405,0.1404,0.1404,0.1403,0.1404,0.1404,0.1405,0,0,0,0,0,0,0,0,0,0,0,0,0,0.135,0.1326,0.1382,0.1384,0.1385,0.141,0.141,0.141,0.1405,0.1404,0.1404,0.1403,0.1403,0.1404,0.1405,0.1421,0,0,0.1406,0.1407,0,0,0,0,0,0,0,0,0.1349,0.1352,0.1383,0.1384,0.1385,0.1404,0.139,0.1413,0.1405,0.1396,0.1404,0.1403,0.1402,0.1403,0.1409,0.1421,0.1421,0.1406,0.1407,0.1407,0.1407,0,0,0,0,0,0,0,0.1347,0.1351,0.1392,0.1384,0.1385,0.1384,0.1387,0.1394,0.1401,0.1397,0.1397,0.1402,0.1402,0.1408,0.1409,0.1421,0.1406,0.1407,0.1407,0.1408,0.1386,0.1385,0,0,0,0,0,0,0.1346,0.1349,0.1391,0.1393,0.1366,0.1385,0.1389,0.1398,0.1402,0.1402,0.1402,0.1401,0.1407,0.1408,0.1409,0.1404,0.1407,0.1408,0.1408,0.1387,0.1386,0.1385,0,0,0,0,0,0,0.1345,0.135,0.139,0.1372,0.1377,0.1387,0.1398,0.1399,0.1407,0.1406,0.1406,0.1409,0.1407,0.1408,0.1416,0.1405,0.1408,0.1408,0.1388,0.1387,0.1385,0.141,0,0,0,0,0,0,0.1343,0.1349,0.136,0.1372,0.1378,0.1409,0.1398,0.14,0.1411,0.141,0.1412,0.1412,0.1407,0.1415,0.1416,0.1406,0.1409,0.1389,0.1388,0.1386,0.1411,0.141,0.1409,0,0,0,0,0,0.1341,0.1359,0.136,0.1366,0.1391,0.141,0.1413,0.1416,0.1412,0.142,0.1418,0.1412,0.1403,0.1416,0.1418,0.1407,0.139,0.1388,0.1386,0.1411,0.141,0.1409,0,0,0,0,0,0,0.1342,0.1361,0.1362,0.1385,0.1397,0.1409,0.1418,0.1422,0.1428,0.1426,0.142,0.142,0.1417,0.1408,0.1422,0.139,0.1388,0.1386,0.1406,0.1405,0.1405,0.1389,0.1409,0,0,0,0,0,0.1347,0.1366,0.1378,0.1399,0.1402,0.1411,0.142,0.1424,0.1431,0.1433,0.1425,0.1414,0.141,0.1407,0.1401,0.1399,0.1393,0.1383,0.1383,0.1383,0.1368,0.1357,0.1355,0.1378,0.1378,0.1378,0,0,0.1359,0.1367,0.1382,0.14,0.1407,0.1401,0.1414,0.1431,0.142,0.1432,0.1412,0.142,0.141,0.1402,0.1398,0.1394,0.1376,0.138,0.138,0.1365,0.1355,0.1353,0.1351,0.1377,0.1377,0.1377,0,0,0.1364,0.1391,0.1392,0.1397,0.1407,0.1412,0.1416,0.1422,0.1419,0.1415,0.1413,0.1415,0.1402,0.1393,0.1387,0.1378,0.1377,0.1371,0.1356,0.1347,0.1345,0.1343,0.1354,0.1353,0.1366,0.1366,0.1366,0,0.1365,0.1368,0.1398,0.1384,0.1384,0.141,0.1397,0.1401,0.1406,0.1406,0.1404,0.1394,0.1389,0.1385,0.1373,0.1377,0.138,0.1368,0.1348,0.1346,0.1344,0.1355,0.1353,0.1367,0.1367,0.1367,0.1367,0,0.1356,0.1355,0.1357,0.1343,0.1354,0.1356,0.1361,0.1369,0.1369,0.1367,0.1369,0.1373,0.1367,0.1363,0.1364,0.1349,0.1361,0.1358,0.1357,0.1344,0.1355,0.1354,0.1368,0.1368,0.1368,0.1368,0,0,0.1342,0.1346,0.1339,0.133,0.1331,0.1341,0.1334,0.1337,0.1344,0.1338,0.134,0.1326,0.1344,0.1336,0.1349,0.1334,0.1331,0.1337,0.1336,0.1359,0.1329,0.1298,0.1293,0.1333,0.1332,0.1332,0.1352,0,0.1308,0.1281,0.1292,0.1272,0.126,0.1288,0.1284,0.1299,0.1313,0.1324,0.1331,0.1338,0.1329,0.1347,0.1329,0.1338,0.1323,0.1326,0.1326,0.1326,0.131,0.1288,0.1319,0.1335,0.135,0.135,0.135,0,0.1265,0.126,0.123,0.1242,0.1241,0.1238,0.1265,0.1268,0.1297,0.1312,0.1326,0.1344,0.134,0.1333,0.132,0.1328,0.1317,0.1315,0.1316,0.127,0.1289,0.1344,0.1331,0.1274,0.1347,0.1347,0.1347,0,0.1225,0.1209,0.1189,0.1187,0.1205,0.1211,0.1228,0.1261,0.1281,0.1314,0.1341,0.1342,0.1358,0.1336,0.1333,0.1328,0.1322,0.1318,0.128,0.1279,0.1292,0.1293,0.1229,0.1286,0.1286,0.1286,0.1286,0,0.1172,0.1159,0.1173,0.1163,0.1168,0.119,0.1208,0.1237,0.1282,0.1313,0.1334,0.1367,0.1356,0.1363,0.1342,0.131,0.1328,0.1265,0.127,0.1302,0.1304,0.1242,0.124,0.1287,0.1287,0.1287,0.1287,0,0.1135,0.1129,0.112,0.1138,0.1146,0.1155,0.1204,0.123,0.1272,0.132,0.1334,0.1383,0.1393,0.1388,0.1371,0.1324,0.128,0.1282,0.1328,0.1336,0.1212,0.1211,0.1131,0.1145,0.1228,0.1228,0.1227,0,0.1114,0.1101,0.111,0.1113,0.1122,0.1143,0.1168,0.1217,0.1257,0.1332,0.136,0.1394,0.1433,0.1406,0.135,0.1313,0.1278,0.1278,0.1244,0.119,0.1195,0.1162,0.1179,0.1294,0.1294,0.1294,0.1294,0,0.1095,0.1094,0.1095,0.1105,0.1118,0.1143,0.1185,0.1215,0.1282,0.1329,0.1397,0.1436,0.1437,0.1433,0.1374,0.1327,0.1252,0.127,0.1208,0.1218,0.1187,0.1211,0.131,0.1293,0.1293,0.1293,0.1293,0.1293,0.1083,0.1087,0.1089,0.1099,0.1118,0.1149,0.1175,0.1229,0.1288,0.1371,0.1414,0.1495,0.154,0.1473,0.1355,0.121,0.1229,0.1172,0.1175,0.1143,0.1141,0.1228,0.1211,0.121,0.121,0.121,0.1209,0,0.1062,0.1075,0.1091,0.11,0.1121,0.1137,0.1196,0.1233,0.1296,0.1387,0.1453,0.1621,0.1554,0.148,0.1333,0.1174,0.1115,0.1098,0.1077,0.1101,0.1176,0.1161,0.114,0.114,0.114,0.114,0.114,0.114,0.1051,0.1052,0.1069,0.1096,0.1113,0.115,0.1181,0.1243,0.1326,0.1479,0.1616,0.1741,0.1836,0.142,0.1163,0.1094,0.1047,0.0994,0.0971,0.1033,0.1041,0.1047,0.1028,0.0979,0.0979,0.0909,0.0909,0.0908]}],[{"header":{"parameterUnit":"m.s-1","parameterCategory":2,"la1":30.2991,"la2":30.254,"lo1":-89.0895,"lo2":-89.0444,"dy":0.0017,"dx":0.0017,"nx":28,"ny":28,"refTime":"2023-07-23T21:00:00:Z","depth":"2","parameterNumber":2,"parameterNumberName":"U-component_of_CURRENTS"},"data":[0,0,0,0,0,0,0,0,0,0,0,0,0,0,0,0,0,0,0,0,0,0,0,0,0,0,0,0,0,0,0,0,0,0,0,0,0,0,0,0,0,0,0,0,0,0,0,0,0,0,0,0,0,0,0,0,0,0,-0.1234,-0.1233,0,-0.1198,-0.1198,-0.1198,-0.116,-0.1159,-0.1158,-0.1157,-0.107,-0.1069,-0.1067,0,0,0,0,0,0,0,0,0,0,0,0,0,-0.1286,-0.1286,-0.1234,-0.1233,-0.1232,-0.1198,-0.1198,-0.1198,-0.116,-0.1159,-0.1157,-0.1156,-0.107,-0.1069,-0.1067,0,0,0,0,0,0,0,0,0,0,0,0,0,-0.1264,-0.1286,-0.1234,-0.1204,-0.1201,-0.1198,-0.1198,-0.1198,-0.116,-0.1159,-0.1157,-0.1156,-0.1071,-0.1069,-0.1067,-0.1088,0,0,-0.1061,-0.106,0,0,0,0,0,0,0,0,-0.1266,-0.1263,-0.121,-0.1206,-0.1202,-0.1176,-0.1185,-0.1157,-0.1161,-0.1182,-0.1157,-0.1155,-0.1098,-0.1094,-0.11,-0.1084,-0.108,-0.1061,-0.106,-0.1059,-0.1058,0,0,0,0,0,0,0,-0.1267,-0.1264,-0.1226,-0.1208,-0.1204,-0.1198,-0.1194,-0.118,-0.1154,-0.118,-0.1176,-0.1163,-0.1096,-0.1102,-0.1098,-0.1079,-0.1061,-0.1059,-0.1058,-0.1057,-0.1022,-0.1022,0,0,0,0,0,0,-0.126,-0.1266,-0.1227,-0.1224,-0.1224,-0.1198,-0.1194,-0.1191,-0.1155,-0.1146,-0.1164,-0.1161,-0.1106,-0.11,-0.1094,-0.105,-0.1059,-0.1057,-0.1056,-0.1021,-0.1022,-0.1022,0,0,0,0,0,0,-0.1262,-0.1258,-0.1228,-0.1239,-0.1234,-0.1198,-0.1197,-0.1191,-0.1183,-0.1142,-0.1133,-0.1158,-0.1105,-0.1097,-0.1078,-0.1048,-0.1056,-0.1055,-0.1021,-0.1022,-0.1022,-0.1004,0,0,0,0,0,0,-0.1264,-0.1259,-0.1262,-0.1239,-0.1232,-0.1235,-0.1197,-0.1192,-0.1175,-0.1171,-0.1135,-0.1126,-0.1103,-0.1082,-0.1076,-0.1046,-0.1053,-0.1021,-0.1021,-0.1022,-0.1004,-0.1003,-0.1003,0,0,0,0,0,-0.1266,-0.1284,-0.1263,-0.1257,-0.1236,-0.1236,-0.1234,-0.1207,-0.1176,-0.119,-0.1155,-0.1126,-0.1079,-0.1081,-0.1075,-0.1042,-0.1021,-0.1021,-0.1022,-0.1004,-0.1003,-0.1003,0,0,0,0,0,0,-0.1318,-0.1281,-0.1257,-0.1264,-0.1249,-0.1227,-0.1228,-0.1207,-0.1193,-0.1174,-0.1137,-0.1127,-0.1097,-0.1086,-0.1088,-0.1037,-0.1042,-0.1042,-0.1031,-0.103,-0.1029,-0.1012,-0.1051,0,0,0,0,0,-0.1327,-0.132,-0.1292,-0.1294,-0.1285,-0.1254,-0.1248,-0.1227,-0.1205,-0.1197,-0.1163,-0.1128,-0.11,-0.1078,-0.1061,-0.1039,-0.1009,-0.1015,-0.1014,-0.1013,-0.0997,-0.0943,-0.0934,-0.1023,-0.1023,-0.1023,0,0,-0.1336,-0.1321,-0.1312,-0.1302,-0.1283,-0.1267,-0.1249,-0.1238,-0.1212,-0.1189,-0.1148,-0.113,-0.1098,-0.1068,-0.1052,-0.1049,-0.0974,-0.1014,-0.1013,-0.0997,-0.0942,-0.0933,-0.0925,-0.1024,-0.1024,-0.1024,0,0,-0.135,-0.1348,-0.1336,-0.1328,-0.1299,-0.1283,-0.1277,-0.1247,-0.1225,-0.12,-0.1162,-0.1128,-0.1097,-0.1055,-0.1032,-0.1022,-0.0979,-0.1018,-0.0986,-0.0934,-0.0925,-0.0917,-0.0869,-0.0857,-0.1009,-0.1009,-0.1009,0,-0.1361,-0.1344,-0.1337,-0.1326,-0.1306,-0.1285,-0.1263,-0.1249,-0.1213,-0.1183,-0.1185,-0.1106,-0.1083,-0.1016,-0.1009,-0.1014,-0.0983,-0.0987,-0.0929,-0.0921,-0.0913,-0.0865,-0.0852,-0.1008,-0.1008,-0.1008,-0.1008,0,-0.1353,-0.1341,-0.134,-0.1304,-0.1296,-0.1284,-0.1249,-0.1231,-0.1198,-0.1166,-0.1108,-0.1083,-0.1028,-0.1017,-0.1006,-0.0933,-0.0929,-0.0939,-0.0925,-0.0902,-0.0855,-0.0841,-0.1007,-0.1007,-0.1007,-0.1007,0,0,-0.1364,-0.1334,-0.133,-0.1305,-0.1279,-0.1269,-0.1231,-0.1185,-0.1141,-0.1112,-0.1048,-0.1002,-0.098,-0.0954,-0.0931,-0.0883,-0.0805,-0.0883,-0.0881,-0.0823,-0.0685,-0.0624,-0.0603,-0.0802,-0.08,-0.0798,-0.0674,0,-0.1349,-0.1323,-0.1307,-0.1271,-0.1252,-0.1224,-0.119,-0.1147,-0.1111,-0.1056,-0.1007,-0.0953,-0.0957,-0.0926,-0.0878,-0.0827,-0.0768,-0.0837,-0.0726,-0.0722,-0.066,-0.0585,-0.0645,-0.0534,-0.0661,-0.0659,-0.0657,0,-0.1337,-0.132,-0.1281,-0.1239,-0.1225,-0.1199,-0.1134,-0.11,-0.1029,-0.0997,-0.0936,-0.0907,-0.0824,-0.0844,-0.0722,-0.0766,-0.0716,-0.0681,-0.0676,-0.061,-0.0634,-0.0578,-0.0504,-0.0634,-0.0636,-0.0638,-0.0639,0,-0.1343,-0.1302,-0.1267,-0.1253,-0.1204,-0.1169,-0.1137,-0.1074,-0.1032,-0.0952,-0.0915,-0.0831,-0.0778,-0.071,-0.0642,-0.0674,-0.0512,-0.0551,-0.0444,-0.0441,-0.0463,-0.0464,-0.0449,-0.0449,-0.045,-0.045,-0.045,0,-0.1341,-0.1314,-0.1263,-0.1247,-0.119,-0.1161,-0.1095,-0.1053,-0.0985,-0.0917,-0.088,-0.0813,-0.0741,-0.0653,-0.0605,-0.0466,-0.0477,-0.0404,-0.0387,-0.0459,-0.0462,-0.0534,-0.0546,-0.0445,-0.0447,-0.0447,-0.0448,0,-0.1348,-0.1322,-0.1278,-0.1218,-0.1192,-0.115,-0.1074,-0.1028,-0.0973,-0.0884,-0.0855,-0.0772,-0.0645,-0.0569,-0.0443,-0.0399,-0.0293,-0.0245,-0.033,-0.0324,-0.0269,-0.0282,-0.0103,-0.0099,-0.0096,-0.0094,-0.0092,0,-0.1339,-0.1318,-0.1254,-0.122,-0.1186,-0.1123,-0.1075,-0.1017,-0.0961,-0.0852,-0.0798,-0.0673,-0.0563,-0.0361,-0.0267,-0.0134,-0.0175,-0.011,-0.017,-0.0223,-0.0226,-0.0243,-0.0259,-0.0205,-0.0204,-0.0203,-0.0202,0,-0.1311,-0.129,-0.1253,-0.1187,-0.1133,-0.1071,-0.0996,-0.0951,-0.0866,-0.0795,-0.0664,-0.0576,-0.0399,-0.0263,-0.0105,-0.0066,-0.0138,-0.0084,-0.0098,-0.0277,-0.0306,-0.0314,-0.0329,-0.0195,-0.0196,-0.0196,-0.0197,-0.0197,-0.1272,-0.124,-0.1186,-0.1118,-0.1065,-0.0982,-0.0908,-0.0839,-0.0734,-0.0585,-0.0556,-0.0401,-0.0383,-0.0121,-0.0049,0.0019,0.0001,-0.0028,-0.0037,-0.0045,-0.0071,-0.0093,0.0053,0.0054,0.0054,0.0055,0.0055,0,-0.1195,-0.116,-0.111,-0.1013,-0.0934,-0.0925,-0.0816,-0.0745,-0.0602,-0.0483,-0.0361,-0.0268,-0.0178,-0.0106,0.0026,0.0073,-0.0001,0.0056,-0.0066,-0.0074,-0.0081,-0.0115,0.0,0.0001,0.0002,0.0003,0,0,-0.1147,-0.1075,-0.1047,-0.0884,-0.0823,-0.0686,-0.0613,-0.0545,-0.0447,-0.0261,-0.0144,-0.0167,-0.0129,-0.0066,-0.0062,0.0025,-0.0032,0.0006,0.0032,-0.0123,-0.0129,-0.016,-0.0223,0,0,0,0,0]},{"header":{"parameterUnit":"m.s-1","parameterCategory":2,"la1":30.2991,"la2":30.254,"lo1":-89.0895,"lo2":-89.0444,"dy":0.0017,"dx":0.0017,"nx":28,"ny":28,"refTime":"2023-07-23T21:00:00:Z","depth":"2","parameterNumber":3,"parameterNumberName":"V-component_of_CURRENTS"},"data":[0,0,0,0,0,0,0,0,0,0,0,0,0,0,0,0,0,0,0,0,0,0,0,0,0,0,0,0,0,0,0,0,0,0,0,0,0,0,0,0,0,0,0,0,0,0,0,0,0,0,0,0,0,0,0,0,0,0,-0.0457,-0.0457,0,-0.051,-0.0511,-0.0512,-0.0588,-0.0589,-0.059,-0.0591,-0.0611,-0.061,-0.061,0,0,0,0,0,0,0,0,0,0,0,0,0,-0.0457,-0.0457,-0.0457,-0.0457,-0.0458,-0.051,-0.0511,-0.0512,-0.0588,-0.0589,-0.059,-0.0591,-0.0611,-0.061,-0.061,0,0,0,0,0,0,0,0,0,0,0,0,0,-0.0481,-0.0457,-0.0457,-0.0499,-0.0504,-0.051,-0.0511,-0.0513,-0.0587,-0.0589,-0.059,-0.0592,-0.0611,-0.061,-0.061,-0.0575,0,0,-0.0608,-0.0607,0,0,0,0,0,0,0,0,-0.048,-0.0482,-0.0493,-0.0496,-0.0501,-0.0541,-0.0519,-0.0531,-0.0587,-0.0559,-0.0591,-0.0593,-0.0581,-0.0583,-0.0594,-0.0576,-0.0577,-0.0608,-0.0607,-0.0607,-0.0607,0,0,0,0,0,0,0,-0.0478,-0.048,-0.0481,-0.0493,-0.0498,-0.0529,-0.0534,-0.0522,-0.0562,-0.0561,-0.0566,-0.0567,-0.0584,-0.0595,-0.0595,-0.0577,-0.0608,-0.0607,-0.0607,-0.0606,-0.0529,-0.0527,0,0,0,0,0,0,-0.0462,-0.0478,-0.0479,-0.0482,-0.0491,-0.0527,-0.0533,-0.0529,-0.0563,-0.0569,-0.0565,-0.057,-0.0595,-0.0596,-0.0596,-0.0561,-0.0607,-0.0606,-0.0606,-0.053,-0.0528,-0.0527,0,0,0,0,0,0,-0.0461,-0.0461,-0.0477,-0.048,-0.0483,-0.0525,-0.0521,-0.0529,-0.0548,-0.0566,-0.0573,-0.0576,-0.0597,-0.0597,-0.058,-0.0563,-0.0606,-0.0605,-0.0532,-0.053,-0.0528,-0.0488,0,0,0,0,0,0,-0.0461,-0.046,-0.0447,-0.0478,-0.0483,-0.0473,-0.0519,-0.0529,-0.0545,-0.0552,-0.0576,-0.058,-0.0598,-0.0581,-0.0579,-0.0563,-0.0605,-0.0535,-0.0531,-0.0528,-0.0492,-0.0485,-0.0479,0,0,0,0,0,-0.0461,-0.043,-0.0445,-0.0445,-0.0464,-0.0471,-0.0476,-0.0514,-0.0543,-0.0539,-0.0556,-0.058,-0.056,-0.0579,-0.0578,-0.056,-0.0536,-0.0532,-0.0529,-0.0495,-0.0486,-0.0479,0,0,0,0,0,0,-0.041,-0.0435,-0.0453,-0.0428,-0.0446,-0.0483,-0.0474,-0.0508,-0.0521,-0.0526,-0.0557,-0.056,-0.0537,-0.0545,-0.0565,-0.0526,-0.0552,-0.0548,-0.0526,-0.0518,-0.0512,-0.0536,-0.0604,0,0,0,0,0,-0.0393,-0.0385,-0.0413,-0.0391,-0.0396,-0.0437,-0.0443,-0.0472,-0.049,-0.05,-0.0517,-0.0524,-0.0517,-0.0517,-0.0509,-0.0486,-0.0504,-0.0472,-0.0466,-0.046,-0.0477,-0.0488,-0.0485,-0.0514,-0.0514,-0.0514,0,0,-0.0368,-0.0377,-0.0373,-0.0381,-0.0397,-0.0406,-0.0445,-0.0448,-0.046,-0.0493,-0.0498,-0.0497,-0.0502,-0.048,-0.0471,-0.049,-0.0452,-0.0456,-0.0451,-0.0471,-0.0484,-0.0481,-0.0479,-0.0512,-0.0512,-0.0513,0,0,-0.0327,-0.0319,-0.0315,-0.0325,-0.0344,-0.0367,-0.0368,-0.0401,-0.0417,-0.0413,-0.044,-0.0432,-0.0423,-0.0431,-0.0433,-0.0382,-0.0413,-0.0372,-0.0368,-0.0377,-0.0375,-0.0375,-0.0364,-0.0363,-0.0375,-0.0375,-0.0375,0,-0.0303,-0.0302,-0.031,-0.0311,-0.0323,-0.035,-0.036,-0.0367,-0.0393,-0.0402,-0.0405,-0.0407,-0.0403,-0.04,-0.0383,-0.037,-0.0378,-0.04,-0.0372,-0.0371,-0.0371,-0.0361,-0.036,-0.0373,-0.0373,-0.0373,-0.0374,0,-0.028,-0.0277,-0.0265,-0.0288,-0.0291,-0.0294,-0.0313,-0.0316,-0.0334,-0.0355,-0.0348,-0.0344,-0.036,-0.034,-0.0347,-0.0341,-0.0345,-0.0359,-0.0399,-0.0367,-0.0357,-0.0356,-0.037,-0.037,-0.0371,-0.0372,0,0,-0.027,-0.0258,-0.0264,-0.0273,-0.0287,-0.0293,-0.0288,-0.0309,-0.0319,-0.0319,-0.0335,-0.0313,-0.0329,-0.0332,-0.0335,-0.0337,-0.032,-0.0349,-0.0351,-0.0353,-0.0331,-0.023,-0.022,-0.0337,-0.0337,-0.0338,-0.0315,0,-0.0272,-0.0269,-0.0266,-0.0272,-0.0281,-0.029,-0.0287,-0.0299,-0.0304,-0.031,-0.0312,-0.0315,-0.032,-0.0324,-0.0327,-0.0325,-0.0324,-0.0325,-0.0352,-0.0352,-0.0278,-0.0218,-0.0259,-0.0234,-0.0315,-0.0315,-0.0315,0,-0.0289,-0.0285,-0.029,-0.0285,-0.0289,-0.0292,-0.0308,-0.0306,-0.0309,-0.0311,-0.0322,-0.0325,-0.0327,-0.0331,-0.0335,-0.0339,-0.0337,-0.0331,-0.0331,-0.0259,-0.0251,-0.0284,-0.0231,-0.0315,-0.0315,-0.0315,-0.0315,0,-0.0325,-0.0313,-0.0319,-0.032,-0.0311,-0.0317,-0.0316,-0.0319,-0.0311,-0.0322,-0.0313,-0.0331,-0.0324,-0.034,-0.0321,-0.0338,-0.0312,-0.0335,-0.0243,-0.0236,-0.0288,-0.0283,-0.0342,-0.0342,-0.0342,-0.0342,-0.0342,0,-0.0356,-0.0361,-0.0335,-0.0345,-0.0349,-0.0337,-0.034,-0.0343,-0.0327,-0.03,-0.0323,-0.0293,-0.0327,-0.0309,-0.0316,-0.0259,-0.0312,-0.023,-0.022,-0.0266,-0.026,-0.0357,-0.0359,-0.0341,-0.0342,-0.0342,-0.0342,0,-0.0402,-0.0386,-0.0388,-0.0373,-0.037,-0.0377,-0.0348,-0.0332,-0.0328,-0.0292,-0.0293,-0.0268,-0.0228,-0.0241,-0.0238,-0.0224,-0.0202,-0.0173,-0.0204,-0.0196,-0.0126,-0.0126,-0.0075,-0.0072,-0.0068,-0.0066,-0.0063,0,-0.0421,-0.0429,-0.0414,-0.0406,-0.04,-0.0393,-0.0373,-0.0351,-0.0313,-0.0254,-0.0219,-0.0178,-0.0101,-0.005,-0.0041,-0.0022,-0.0089,-0.0057,-0.0084,-0.0101,-0.0097,-0.0103,-0.0107,-0.0141,-0.014,-0.0139,-0.0138,0,-0.0454,-0.045,-0.0445,-0.0426,-0.0408,-0.0371,-0.0332,-0.0303,-0.0245,-0.0191,-0.0082,-0.0016,0.0057,0.0093,0.0117,0.0102,-0.0063,-0.0024,-0.0062,-0.0173,-0.0153,-0.0152,-0.0157,-0.0127,-0.0128,-0.0129,-0.013,-0.013,-0.0471,-0.047,-0.0452,-0.0431,-0.0397,-0.0329,-0.0275,-0.0202,-0.0115,-0.0002,0.0045,0.0114,0.0089,0.0147,0.0158,0.0122,0.0131,0.0044,0.0034,0.0025,0.0042,0.007,0.0141,0.0142,0.0142,0.0142,0.0143,0,-0.048,-0.0463,-0.0446,-0.0396,-0.0333,-0.0315,-0.0217,-0.0137,0.0002,0.0061,0.0184,0.0115,0.0171,0.0116,0.0125,0.0166,0.0091,0.0101,-0.0026,-0.0035,-0.0043,-0.0035,0.0046,0.0046,0.0046,0.0046,0,0,-0.048,-0.0464,-0.0446,-0.0342,-0.0286,-0.0155,-0.0082,0.0018,0.0078,0.0147,0.0141,0.0195,0.013,0.0078,0.0093,0.0086,0.0015,0.0061,0.0137,-0.002,-0.0029,-0.0077,-0.0072,0,0,0,0,0]}],[{"header":{"parameterUnit":"m.s-1","parameterCategory":2,"la1":30.2991,"la2":30.254,"lo1":-89.0895,"lo2":-89.0444,"dy":0.0017,"dx":0.0017,"nx":28,"ny":28,"refTime":"2023-07-23T21:00:00:Z","depth":"4","parameterNumber":2,"parameterNumberName":"U-component_of_CURRENTS"},"data":[0,0,0,0,0,0,0,0,0,0,0,0,0,0,0,0,0,0,0,0,0,0,0,0,0,0,0,0,0,0,0,0,0,0,0,0,0,0,0,0,0,0,0,0,0,0,0,0,0,0,0,0,0,0,0,0,0,0,-0.023,-0.0229,0,-0.0246,-0.0246,-0.0247,-0.0263,-0.0263,-0.0262,-0.0262,-0.0328,-0.033,-0.0332,0,0,0,0,0,0,0,0,0,0,0,0,0,-0.0219,-0.0219,-0.023,-0.0229,-0.0229,-0.0245,-0.0246,-0.0247,-0.0263,-0.0263,-0.0262,-0.0262,-0.0327,-0.033,-0.0333,0,0,0,0,0,0,0,0,0,0,0,0,0,-0.0235,-0.022,-0.023,-0.0234,-0.0234,-0.0245,-0.0246,-0.0247,-0.0263,-0.0263,-0.0262,-0.0261,-0.0327,-0.033,-0.0333,-0.0365,0,0,-0.0343,-0.0344,0,0,0,0,0,0,0,0,-0.0234,-0.0236,-0.0233,-0.0233,-0.0233,-0.0246,-0.0266,-0.0287,-0.0263,-0.0259,-0.0262,-0.0261,-0.0301,-0.0306,-0.032,-0.0369,-0.0371,-0.0343,-0.0345,-0.0346,-0.0347,0,0,0,0,0,0,0,-0.0233,-0.0235,-0.0243,-0.0233,-0.0233,-0.0236,-0.0238,-0.0271,-0.029,-0.026,-0.0259,-0.025,-0.0302,-0.0317,-0.0322,-0.0372,-0.0343,-0.0346,-0.0348,-0.0349,-0.0493,-0.0495,0,0,0,0,0,0,-0.0217,-0.0234,-0.0242,-0.0243,-0.0224,-0.0236,-0.0239,-0.0248,-0.0288,-0.0292,-0.0251,-0.0251,-0.0312,-0.0318,-0.0324,-0.0409,-0.0346,-0.0349,-0.0351,-0.0491,-0.0494,-0.0496,0,0,0,0,0,0,-0.0217,-0.0219,-0.0242,-0.0232,-0.0234,-0.0236,-0.0247,-0.0248,-0.0276,-0.028,-0.0285,-0.0276,-0.0311,-0.032,-0.0359,-0.041,-0.0351,-0.0354,-0.0489,-0.0492,-0.0495,-0.055,0,0,0,0,0,0,-0.0217,-0.0219,-0.0228,-0.0232,-0.0234,-0.0253,-0.0246,-0.0249,-0.0267,-0.0268,-0.0304,-0.0308,-0.0312,-0.0354,-0.0362,-0.0413,-0.0356,-0.0487,-0.049,-0.0494,-0.0546,-0.0554,-0.0562,0,0,0,0,0,-0.0217,-0.0224,-0.0229,-0.0229,-0.0244,-0.0253,-0.0257,-0.0259,-0.0269,-0.0284,-0.0305,-0.0308,-0.0383,-0.0358,-0.0367,-0.042,-0.0485,-0.0489,-0.0493,-0.0542,-0.0553,-0.0562,0,0,0,0,0,0,-0.0221,-0.0226,-0.0231,-0.0239,-0.0248,-0.0253,-0.0262,-0.0273,-0.0305,-0.0313,-0.0325,-0.0332,-0.039,-0.0395,-0.0367,-0.0472,-0.0438,-0.0444,-0.0472,-0.0482,-0.049,-0.0446,-0.0359,0,0,0,0,0,-0.0225,-0.0238,-0.0241,-0.0249,-0.0255,-0.0268,-0.0275,-0.0283,-0.0302,-0.0316,-0.0342,-0.0376,-0.0415,-0.0437,-0.0467,-0.0521,-0.0494,-0.0564,-0.0572,-0.0579,-0.055,-0.0547,-0.0551,-0.051,-0.051,-0.051,0,0,-0.0228,-0.0231,-0.0238,-0.0251,-0.0262,-0.028,-0.0274,-0.0292,-0.0307,-0.032,-0.0365,-0.0405,-0.0434,-0.0493,-0.0521,-0.0504,-0.0583,-0.0584,-0.059,-0.0556,-0.0551,-0.0555,-0.0558,-0.0513,-0.0512,-0.0512,0,0,-0.0232,-0.0247,-0.0258,-0.0268,-0.0281,-0.0297,-0.0307,-0.0332,-0.0342,-0.0382,-0.0407,-0.0464,-0.0519,-0.0552,-0.0574,-0.0644,-0.0625,-0.0677,-0.0684,-0.0684,-0.0686,-0.0687,-0.068,-0.068,-0.0682,-0.0682,-0.0682,0,-0.0235,-0.0252,-0.0262,-0.0274,-0.0285,-0.0309,-0.0329,-0.0343,-0.038,-0.0391,-0.0398,-0.0499,-0.054,-0.0604,-0.0636,-0.0662,-0.0648,-0.0647,-0.0691,-0.0692,-0.0692,-0.0683,-0.0683,-0.0685,-0.0685,-0.0685,-0.0684,0,-0.0247,-0.0264,-0.0272,-0.0303,-0.0321,-0.0343,-0.0359,-0.0388,-0.0416,-0.0429,-0.049,-0.0542,-0.0596,-0.0645,-0.0662,-0.0714,-0.07,-0.07,-0.0659,-0.0699,-0.0688,-0.0687,-0.069,-0.0689,-0.0688,-0.0687,0,0,-0.0249,-0.0276,-0.0282,-0.0294,-0.034,-0.0352,-0.0387,-0.0417,-0.0427,-0.0479,-0.05,-0.0596,-0.0625,-0.065,-0.0703,-0.0713,-0.0738,-0.0711,-0.071,-0.0688,-0.0726,-0.0616,-0.0604,-0.0743,-0.0743,-0.0743,-0.0724,0,-0.026,-0.0285,-0.0302,-0.0337,-0.0355,-0.0385,-0.041,-0.0439,-0.046,-0.0487,-0.0538,-0.0586,-0.0625,-0.0671,-0.069,-0.072,-0.0732,-0.0741,-0.07,-0.0699,-0.0584,-0.0597,-0.0742,-0.0722,-0.0722,-0.0722,-0.0721,0,-0.0271,-0.0286,-0.0318,-0.0347,-0.0358,-0.0384,-0.0424,-0.0447,-0.0481,-0.0493,-0.054,-0.0573,-0.0631,-0.0648,-0.0683,-0.0685,-0.0705,-0.0717,-0.0717,-0.058,-0.0584,-0.067,-0.0718,-0.0718,-0.0718,-0.0718,-0.0719,0,-0.0267,-0.0297,-0.0323,-0.0335,-0.0375,-0.039,-0.0423,-0.0455,-0.0465,-0.0501,-0.0512,-0.0564,-0.0599,-0.0617,-0.0649,-0.067,-0.065,-0.0685,-0.0602,-0.0595,-0.0675,-0.0673,-0.0691,-0.0691,-0.0691,-0.0691,-0.0691,0,-0.0273,-0.0289,-0.0317,-0.0328,-0.0351,-0.0385,-0.0408,-0.0432,-0.0465,-0.0469,-0.052,-0.052,-0.0588,-0.0592,-0.0622,-0.0581,-0.0629,-0.0578,-0.0572,-0.0705,-0.0706,-0.0674,-0.0673,-0.069,-0.069,-0.069,-0.069,0,-0.0261,-0.0285,-0.0305,-0.0339,-0.0348,-0.0367,-0.0404,-0.0409,-0.0442,-0.0448,-0.0464,-0.0492,-0.0475,-0.0511,-0.0534,-0.0531,-0.0517,-0.0499,-0.0617,-0.0622,-0.0477,-0.0479,-0.0402,-0.0398,-0.0394,-0.0391,-0.0388,0,-0.0256,-0.0268,-0.0302,-0.0309,-0.0323,-0.035,-0.0363,-0.0401,-0.0398,-0.0411,-0.0402,-0.04,-0.0409,-0.0349,-0.0388,-0.0393,-0.0405,-0.0404,-0.0457,-0.044,-0.0443,-0.0451,-0.0457,-0.0383,-0.0382,-0.0381,-0.038,0,-0.0241,-0.0258,-0.0273,-0.0289,-0.0299,-0.0305,-0.0321,-0.0312,-0.034,-0.0371,-0.0328,-0.0316,-0.0279,-0.0282,-0.0275,-0.0291,-0.0403,-0.0368,-0.0377,-0.0426,-0.0416,-0.0424,-0.0435,-0.0367,-0.0369,-0.037,-0.0371,0,-0.0229,-0.0231,-0.0251,-0.0263,-0.0265,-0.0245,-0.0265,-0.0251,-0.0258,-0.0273,-0.0247,-0.024,-0.0261,-0.0224,-0.0214,-0.0205,-0.0223,-0.025,-0.0266,-0.028,-0.0245,-0.0215,-0.0077,0,0,0,0,0,-0.0217,-0.0214,-0.0221,-0.022,-0.0216,-0.0214,-0.0222,-0.0238,-0.0255,-0.0212,-0.0233,-0.0195,-0.016,-0.0154,-0.0122,-0.0151,-0.0222,-0.0111,-0.0261,-0.0298,-0.0312,-0.0281,0,0,0,0,0,0,-0.0205,-0.0209,-0.0211,-0.0176,-0.0159,-0.0142,-0.014,-0.0155,-0.0136,-0.0161,-0.0144,-0.0169,-0.0141,-0.0171,-0.0113,-0.0112,-0.0198,-0.0114,-0.0113,-0.029,-0.0303,-0.0314,-0.0287,0,0,0,0,0]},{"header":{"parameterUnit":"m.s-1","parameterCategory":2,"la1":30.2991,"la2":30.254,"lo1":-89.0895,"lo2":-89.0444,"dy":0.0017,"dx":0.0017,"nx":28,"ny":28,"refTime":"2023-07-23T21:00:00:Z","depth":"4","parameterNumber":3,"parameterNumberName":"V-component_of_CURRENTS"},"data":[0,0,0,0,0,0,0,0,0,0,0,0,0,0,0,0,0,0,0,0,0,0,0,0,0,0,0,0,0,0,0,0,0,0,0,0,0,0,0,0,0,0,0,0,0,0,0,0,0,0,0,0,0,0,0,0,0,0,-0.0282,-0.0281,0,-0.0312,-0.0313,-0.0314,-0.0361,-0.0361,-0.0361,-0.0361,-0.0367,-0.0368,-0.0368,0,0,0,0,0,0,0,0,0,0,0,0,0,-0.0247,-0.0249,-0.0282,-0.0281,-0.0281,-0.0311,-0.0313,-0.0314,-0.0362,-0.0361,-0.0361,-0.0361,-0.0367,-0.0368,-0.0368,0,0,0,0,0,0,0,0,0,0,0,0,0,-0.0279,-0.0249,-0.0282,-0.03,-0.0301,-0.0311,-0.0313,-0.0315,-0.0362,-0.0361,-0.0361,-0.0361,-0.0367,-0.0368,-0.0368,-0.0377,0,0,-0.037,-0.037,0,0,0,0,0,0,0,0,-0.0277,-0.0282,-0.0298,-0.0298,-0.0299,-0.0323,-0.0302,-0.033,-0.0362,-0.0351,-0.0361,-0.0361,-0.0343,-0.0346,-0.0368,-0.0377,-0.0377,-0.037,-0.037,-0.037,-0.037,0,0,0,0,0,0,0,-0.0275,-0.028,-0.0305,-0.0297,-0.0298,-0.0298,-0.0304,-0.0309,-0.0356,-0.0351,-0.0352,-0.0337,-0.0345,-0.0368,-0.0368,-0.0377,-0.037,-0.037,-0.0371,-0.0371,-0.0447,-0.0448,0,0,0,0,0,0,-0.025,-0.0279,-0.0304,-0.0305,-0.0274,-0.0298,-0.0305,-0.0325,-0.0357,-0.0358,-0.0337,-0.0339,-0.0367,-0.0368,-0.0369,-0.042,-0.037,-0.0371,-0.0371,-0.0445,-0.0447,-0.0449,0,0,0,0,0,0,-0.025,-0.0254,-0.0303,-0.0281,-0.0286,-0.0298,-0.032,-0.0325,-0.0372,-0.0344,-0.0348,-0.038,-0.0367,-0.0368,-0.039,-0.0418,-0.0371,-0.0372,-0.0443,-0.0446,-0.0448,-0.0496,0,0,0,0,0,0,-0.025,-0.0254,-0.0273,-0.0281,-0.0286,-0.0328,-0.0319,-0.0326,-0.0356,-0.036,-0.0381,-0.038,-0.0367,-0.0389,-0.039,-0.0418,-0.0372,-0.0441,-0.0444,-0.0447,-0.0492,-0.0499,-0.0506,0,0,0,0,0,-0.0249,-0.0276,-0.0275,-0.0277,-0.0308,-0.0328,-0.0334,-0.0347,-0.0358,-0.039,-0.0396,-0.0381,-0.0411,-0.0391,-0.0392,-0.042,-0.0439,-0.0443,-0.0447,-0.0489,-0.0498,-0.0506,0,0,0,0,0,0,-0.0281,-0.0282,-0.0281,-0.0311,-0.0322,-0.0332,-0.0354,-0.0367,-0.0403,-0.041,-0.0398,-0.0398,-0.0432,-0.0423,-0.0401,-0.0454,-0.0425,-0.0429,-0.0457,-0.0465,-0.0472,-0.0416,-0.0372,0,0,0,0,0,-0.029,-0.0313,-0.0309,-0.0338,-0.0342,-0.0357,-0.037,-0.0382,-0.0398,-0.0417,-0.0429,-0.0439,-0.0447,-0.0453,-0.0463,-0.0487,-0.045,-0.0509,-0.0516,-0.0522,-0.048,-0.0453,-0.0452,-0.0462,-0.0462,-0.0462,0,0,-0.031,-0.031,-0.0326,-0.0345,-0.0357,-0.0359,-0.037,-0.0401,-0.0398,-0.0408,-0.0436,-0.0468,-0.0461,-0.049,-0.0505,-0.0485,-0.0512,-0.0527,-0.0532,-0.0485,-0.0457,-0.0455,-0.0454,-0.0464,-0.0464,-0.0463,0,0,-0.033,-0.0364,-0.0371,-0.0375,-0.038,-0.0392,-0.0405,-0.0433,-0.0446,-0.0472,-0.0479,-0.0522,-0.0542,-0.0542,-0.054,-0.0591,-0.0555,-0.0616,-0.0598,-0.0575,-0.0573,-0.057,-0.0563,-0.0559,-0.0614,-0.0614,-0.0614,0,-0.0351,-0.0355,-0.0379,-0.0369,-0.0367,-0.0406,-0.0404,-0.0419,-0.0453,-0.0457,-0.0483,-0.0532,-0.0554,-0.0552,-0.058,-0.0604,-0.0583,-0.0567,-0.058,-0.0576,-0.0572,-0.0566,-0.056,-0.0617,-0.0617,-0.0617,-0.0616,0,-0.0344,-0.0354,-0.0364,-0.0362,-0.0375,-0.0394,-0.0392,-0.0426,-0.046,-0.0467,-0.0503,-0.0541,-0.0562,-0.06,-0.0602,-0.0601,-0.0596,-0.0596,-0.0549,-0.0574,-0.0567,-0.056,-0.0621,-0.062,-0.0619,-0.0619,0,0,-0.0374,-0.0362,-0.0364,-0.0355,-0.0373,-0.0385,-0.0389,-0.0399,-0.0398,-0.0452,-0.0455,-0.0505,-0.0546,-0.0544,-0.0579,-0.0566,-0.0567,-0.0569,-0.0566,-0.0544,-0.0518,-0.0506,-0.0498,-0.0564,-0.0563,-0.0561,-0.0538,0,-0.0362,-0.0345,-0.034,-0.0339,-0.0337,-0.0359,-0.0358,-0.0373,-0.0396,-0.0418,-0.0451,-0.0484,-0.0513,-0.0554,-0.0541,-0.0562,-0.0544,-0.0572,-0.051,-0.0507,-0.0479,-0.0488,-0.0556,-0.0533,-0.0531,-0.053,-0.0529,0,-0.0337,-0.0334,-0.0324,-0.0323,-0.0324,-0.033,-0.0348,-0.0348,-0.0365,-0.0383,-0.0407,-0.0442,-0.046,-0.0488,-0.0471,-0.0486,-0.049,-0.0496,-0.0496,-0.0444,-0.0481,-0.0495,-0.0517,-0.0518,-0.0519,-0.052,-0.0521,0,-0.0334,-0.032,-0.0319,-0.0315,-0.0321,-0.0323,-0.0341,-0.0351,-0.0354,-0.037,-0.0394,-0.0397,-0.0438,-0.0413,-0.044,-0.0455,-0.0406,-0.0437,-0.0418,-0.0419,-0.0414,-0.0416,-0.039,-0.039,-0.0391,-0.0391,-0.0391,0,-0.0316,-0.0313,-0.0318,-0.0315,-0.0324,-0.0325,-0.0337,-0.0342,-0.0358,-0.0368,-0.0385,-0.0398,-0.0418,-0.041,-0.0409,-0.0386,-0.038,-0.039,-0.0398,-0.0445,-0.0451,-0.0412,-0.0415,-0.039,-0.039,-0.039,-0.039,0,-0.0307,-0.0307,-0.0306,-0.0315,-0.0321,-0.0333,-0.0356,-0.0363,-0.0367,-0.0381,-0.0396,-0.0409,-0.0398,-0.0391,-0.0374,-0.0365,-0.0339,-0.0329,-0.0377,-0.0393,-0.038,-0.0386,-0.0309,-0.0308,-0.0307,-0.0306,-0.0306,0,-0.0298,-0.0297,-0.0315,-0.0328,-0.0334,-0.0354,-0.0375,-0.0382,-0.0386,-0.0384,-0.0395,-0.0395,-0.04,-0.0352,-0.0345,-0.0311,-0.0312,-0.0298,-0.033,-0.0348,-0.0364,-0.0371,-0.0378,-0.0304,-0.0304,-0.0304,-0.0304,0,-0.0291,-0.0304,-0.031,-0.0338,-0.0359,-0.038,-0.0401,-0.0405,-0.041,-0.0408,-0.0392,-0.038,-0.0365,-0.035,-0.0317,-0.0296,-0.0305,-0.029,-0.0292,-0.0323,-0.0342,-0.036,-0.0368,-0.0301,-0.0301,-0.0302,-0.0302,0,-0.0297,-0.0304,-0.0322,-0.0342,-0.0372,-0.0398,-0.0409,-0.0414,-0.0418,-0.0403,-0.0399,-0.0376,-0.0373,-0.0341,-0.0308,-0.0283,-0.0294,-0.0294,-0.0297,-0.03,-0.0305,-0.0329,-0.0268,0,0,0,0,0,-0.0303,-0.0307,-0.0327,-0.0349,-0.038,-0.0396,-0.0422,-0.0429,-0.0426,-0.0412,-0.0401,-0.038,-0.0342,-0.0332,-0.0305,-0.0308,-0.0296,-0.0277,-0.03,-0.0286,-0.0289,-0.0295,0,0,0,0,0,0,-0.0305,-0.032,-0.0322,-0.0351,-0.0368,-0.04,-0.0419,-0.042,-0.0411,-0.0401,-0.0383,-0.0365,-0.0334,-0.0349,-0.0299,-0.0294,-0.0304,-0.0259,-0.0258,-0.0284,-0.0287,-0.0289,-0.0297,0,0,0,0,0]}]]